Regional Weather Roundup
Issued by NWS

Home | Current Version | Previous Version | Graphics & Text | Print | Product List | Glossary On
Versions: 1 2 3 4 5 6 7 8 9 10 11 12 13 14 15 16 17 18 19 20 21 22 23 24 25 26 27 28 29 30 31 32 33 34 35 36 37 38 39 40 41 42 43 44 45 46 47 48 49 50
000
ASUS43 KMPX 030210
RWRMN
WEATHER ROUNDUP FOR MINNESOTA
NATIONAL WEATHER SERVICE TWIN CITIES/CHANHASSEN MN
800 PM CST FRI DEC 02 2016


NOTE: "FAIR" INDICATES FEW OR NO CLOUDS BELOW 12,000 FEET WITH NO
SIGNIFICANT WEATHER AND/OR OBSTRUCTIONS TO VISIBILITY. N/A MEANS
CURRENT SKY AND/OR WEATHER CONDITIONS ARE NOT AVAILABLE.

MNZ060>063-068>070-030300-
   Twin Cities Metro

CITY           SKY/WX    TMP DP  RH WIND       PRES   REMARKS
TWIN CITIES    CLOUDY    31  23  72 W7        30.29S WCI  24
ST PAUL        CLOUDY    31  25  78 SW7       30.30S WCI  24
CRYSTAL        CLOUDY    31  23  72 N5        30.27F WCI  26
BLAINE         CLOUDY    32  27  80 NW6       30.28S WCI  26
LAKEVILLE      CLOUDY    28  23  80 W7        30.29S WCI  21
EDEN PRAIRIE   CLOUDY    31  23  72 SW6       30.28S WCI  25
SOUTH ST PAUL  CLOUDY    31  24  74 W7        30.29S WCI  25
LAKE ELMO      CLOUDY    32  27  80 N5        30.29S WCI  27
$$
MNZ001>005-007-008-013>017-022>024-027-028-030300-
   Northwest Minnesota

CITY           SKY/WX    TMP DP  RH WIND       PRES   REMARKS
BEMIDJI        CLOUDY    24  20  82 W8        30.25S WCI  15
HALLOCK        CLOUDY    28  27  93 CALM      30.26S
ROSEAU         CLOUDY    27  21  80 N6        30.25S WCI  20
WARROAD        CLOUDY    25  21  86 W5        30.25S WCI  19
THIEF RVR FALL CLOUDY    27  23  85 SE3       30.27S
CROOKSTON      CLOUDY    30  21  69 W6        30.28S WCI  24
FOSSTON        CLOUDY    25  19  80 CALM      30.27R
DETROIT LAKES  CLOUDY    28  23  80 NW6       30.27F WCI  22
MOORHEAD       CLOUDY    28  19  69 SW3       30.31S
PARK RAPIDS    CLOUDY    25  18  74 CALM      30.26R
$$
MNZ006-009>011-018-025>026-030300-
   North Central Minnesota

CITY           SKY/WX    TMP DP  RH WIND       PRES   REMARKS
BAUDETTE       CLOUDY    24  20  84 W7        30.24S WCI  16
FLAG ISLAND    CLOUDY    21  19  93 SW6       30.24F WCI  14
INTL FALLS     CLOUDY    23  19  85 W6        30.25R WCI  16
WASKISH        CLOUDY    27  23  86 W6        30.25S WCI  20
BIG FORK       CLOUDY    25  21  86 CALM      30.25S
LONGVILLE      CLOUDY    25  21  86 W5        30.26S WCI  19
GRAND RAPIDS   CLOUDY    25  21  85 W7        30.27R WCI  17
CRANE LAKE     CLOUDY    25  21  86 W5        30.26R WCI  19
ORR            CLOUDY    23  19  86 CALM      30.22R
COOK           CLOUDY    25  21  86 W6        30.24S WCI  18
$$
MNZ012-019>021-037-030300-
   Northeast Minnesota

CITY           SKY/WX    TMP DP  RH WIND       PRES   REMARKS
DULUTH         CLOUDY    29  25  85 W8        30.22S WCI  21
ELY            CLOUDY    27  25  93 CALM      30.21S
HIBBING        CLOUDY    25  21  85 W7        30.24R WCI  17
EVELETH        CLOUDY    26  24  91 W7        30.24R WCI  19
DULUTH HARBOR  CLOUDY    32  27  80 CALM      30.27S
TWO HARBORS    CLOUDY    32  27  80 W3        30.22S
SILVER BAY     CLOUDY    28  25  86 CALM      30.21S
GRAND MARAIS     N/A     32  26  78 CALM      30.23S
G MARAIS ARPRT CLOUDY    25  19  80 NW3       30.18R
$$
MNZ029>031-032-039>041-046>048-054>057-064-030300-
   West Central Minnesota

CITY           SKY/WX    TMP DP  RH WIND       PRES   REMARKS
FERGUS FALLS   CLOUDY    27  19  74 NW5       30.33S WCI  21
WHEATON        CLOUDY   N/A N/A N/A NW6       30.32S
MORRIS         CLOUDY    27  21  80 NW5       30.29S WCI  21
ALEXANDRIA     CLOUDY    26  20  77 NW5       30.28S WCI  20
ELBOW LAKE     CLOUDY    26  20  78 CALM      30.29F
WADENA         CLOUDY    25  19  80 NW6       30.27S WCI  18
GLENWOOD       CLOUDY    27  21  80 W3        30.28S
APPLETON       CLOUDY    28  21  74 N5        30.30S WCI  23
BENSON         CLOUDY    27  19  74 N5        30.30S WCI  21
ORTONVILLE     CLOUDY    27  18  69 CALM      30.30S
MADISON        CLOUDY    30  25  80 NW3       30.30S
WILLMAR        CLOUDY    28  25  86 W8        30.30S WCI  20
$$
MNZ033>034-036-042>043-049>051-058-059-030300-
   Central Minnesota

CITY           SKY/WX    TMP DP  RH WIND       PRES   REMARKS
ST CLOUD       CLOUDY    29  23  78 NW8       30.27F WCI  21
PAYNESVILLE    CLOUDY    28  23  80 W3        30.29S
AITKIN         CLOUDY    28  21  74 W3        30.26S
PINE RIVER     CLOUDY    25  21  86 W3        30.29S
BRAINERD       CLOUDY    26  22  84 W7        30.27F WCI  18
STAPLES        CLOUDY    25  21  86 NW8       30.27S WCI  16
LONG PRAIRIE   CLOUDY    27  21  80 W3        30.27F
LITTLE FALLS   CLOUDY    28  23  80 CALM      30.27F
LITCHFIELD     CLOUDY    28  23  80 CALM      30.29S
BUFFALO        CLOUDY    30  24  78 W6        30.29S WCI  24
MAPLE LAKE     CLOUDY    31  27  84 W5        30.29S WCI  26
HUTCHINSON     CLOUDY    28  23  80 W3        30.31R
$$
MNZ037-044-045-052-053-030300-
   East Central Minnesota

CITY           SKY/WX    TMP DP  RH WIND       PRES   REMARKS
PRINCETON      CLOUDY    30  25  80 W3        30.28S
MORA           CLOUDY    28  23  80 CALM      30.28F
CAMBRIDGE      CLOUDY    30  21  69 CALM      30.26F
RUSH CITY      CLOUDY    28  23  80 NW6       30.28S WCI  22
MOOSE LAKE     CLOUDY    30  25  80 W3        30.24S
HINCKLEY       CLOUDY    30  27  86 CALM      30.27S
CLOQUET        CLOUDY    28  23  80 W7        30.23F WCI  21
MCGREGOR       CLOUDY    28  25  86 NW6       30.26F WCI  22
$$
MNZ071>073-080-081-089-090-097-098-030300-
   Southwest Minnesota

CITY           SKY/WX    TMP DP  RH WIND       PRES   REMARKS
MONTEVIDEO     CLOUDY    28  27  93 CALM      30.32S
GRANITE FALLS  CLOUDY    30  24  80 CALM      30.33R
CANBY          CLOUDY    29  22  76 CALM      30.31S
MARSHALL       FLURRIES  28  21  75 NW9       30.30S WCI  19
REDWOOD FALLS  CLOUDY    29  19  66 NW6       30.30S WCI  23
OLIVIA         MOCLDY    30  23  74 NW6       30.30R WCI  24
PIPESTONE      CLOUDY    28  21  74 NW6       30.28R WCI  22
WINDOM         CLOUDY    28  25  86 CALM      30.29S
WORTHINGTON    CLOUDY    28  22  78 W9        30.30R WCI  19
JACKSON        CLOUDY    30  23  74 W10       30.30S WCI  21
TRACY          CLOUDY    30  25  82 CALM      30.29S
SLAYTON        CLOUDY    27  20  75 W8        30.29S WCI  19
$$
MNZ065>067-074>077-082>085-091>093-030300-
   South Central Minnesota

CITY           SKY/WX    TMP DP  RH WIND       PRES   REMARKS
MANKATO        CLOUDY    29  22  75 NW7       30.31R WCI  22
NEW ULM        CLOUDY    28  21  74 CALM      30.30S
ST JAMES       CLOUDY    28  25  86 NW5       30.32S WCI  23
FAIRMONT       CLOUDY    30  24  78 CALM      30.31S
GLENCOE        CLOUDY    30  26  86 W6        30.29S WCI  24
FARIBAULT      CLOUDY    28  21  74 W6        30.30S WCI  22
OWATONNA       CLOUDY    28  21  74 W7        30.30R WCI  21
WASECA         CLOUDY    30  23  74 NW8       30.32R WCI  23
ALBERT LEA     CLOUDY    32  25  74 W6        30.30S WCI  26
$$
MNZ078>079-086>088-094>096-030300-
   Southeast Minnesota

CITY           SKY/WX    TMP DP  RH WIND       PRES   REMARKS
ROCHESTER      CLOUDY    28  22  78 NW13      30.29R WCI  17
RED WING       CLOUDY    32  21  64 W7        30.28S WCI  26
STANTON        CLOUDY    31  23  73 SW8       30.29R WCI  23
DODGE CENTER   CLOUDY    27  21  80 W6        30.29R WCI  20
WINONA         CLOUDY    34  25  69 W6        30.30S WCI  29
AUSTIN         CLOUDY    28  21  74 NW9       30.30S WCI  20
PRESTON        CLOUDY    28  22  78 W6        30.29R WCI  22
$$
ABBREVIATIONS USED IN REMARKS
   TC - TEMPERATURES IN CELSIUS
  WCI - WIND CHILL INDEX
   HX - HEAT INDEX
  VSB - VISIBILITY
$$




USA.gov is the U.S. government's official web portal to all federal, state and local government web resources and services.